Fergus Falls, MN

7:03 PM CST on November 20, 2019 (GMT -0600)
Fergus Falls Municipal-Mickelson

Weather History for KFFM - September, 2019

Change the Weather History Date:

Wednesday, September 25, 2019

  Actual Average Record
Temperature  
Mean Temperature 54 °F -  
Max Temperature 64 °F 66 °F 84 °F (1990)
Min Temperature 44 °F 43 °F 26 °F (1965)
Degree Days  
Heating Degree Days 11    
Growing Degree Days 4 (Base 50)    
Moisture  
Dew Point 44 °F    
Average Humidity 70    
Maximum Humidity 100    
Minimum Humidity 40    
Precipitation  
Precipitation 0.00 in - - ()
Sea Level Pressure  
Sea Level Pressure 29.77 in    
Wind  
Wind Speed 10 mph ()    
Max Wind Speed 23 mph    
Max Gust Speed 30 mph    
Visibility 10.0 miles    
Events      
Averages and records for this station are not official NWS values.
T = Trace of Precipitation, MM = Missing Value Source: Averaged Metar Reports

Daily Weather History Graph

Daily Weather History Graph

Search for Another Location

Airport or City:

Astronomy

Sep. 25, 2019 Rise Set
Actual Time 7:15 AM CDT 7:16 PM CDT
Civil Twilight 6:45 AM CDT 7:46 PM CDT
Nautical Twilight 6:10 AM CDT 8:21 PM CDT
Astronomical Twilight 5:34 AM CDT 8:57 PM CDT
Moon 2:51 AM CDT (9/25) 6:05 PM CDT (9/25)
Length of Visible Light 13h 01m
Length of Day
12h 01m
Waning Crescent, 14% of the Moon is Illuminated
Sep 25
Waning Crescent
Sep 28
New
Oct 5
First Quarter
Oct 13
Full
Oct 21
Last Quarter

Hourly Weather History & Observations

Time (CDT) Temp. Windchill Dew Point Humidity Pressure Visibility Wind Dir Wind Speed Gust Speed Precip Events Conditions
12:18 AM 60.8 °F - 50.0 °F 68% 29.60 in 10.0 mi NNW 9.2 mph - N/A   Overcast
12:36 AM 60.8 °F - 50.0 °F 68% 29.61 in 10.0 mi NNW 15.0 mph 18.4 mph N/A   Overcast
12:56 AM 59.0 °F - 50.0 °F 72% 29.61 in 10.0 mi NNW 12.7 mph - N/A   Scattered Clouds
1:15 AM 57.2 °F - 50.0 °F 77% 29.63 in 10.0 mi NW 11.5 mph - N/A   Clear
1:16 AM 57.2 °F - 50.0 °F 77% 29.63 in 10.0 mi NNW 11.5 mph - N/A   Clear
1:35 AM 57.2 °F - 50.0 °F 77% 29.64 in 10.0 mi NW 10.4 mph - N/A   Clear
1:39 AM 55.4 °F - 50.0 °F 82% 29.64 in 10.0 mi NW 9.2 mph - N/A   Clear
1:57 AM 55.4 °F - 48.2 °F 77% 29.65 in 10.0 mi NW 9.2 mph - N/A   Clear
2:16 AM 53.6 °F - 48.2 °F 82% 29.66 in 10.0 mi NW 8.1 mph - N/A   Clear
2:35 AM 53.6 °F - 48.2 °F 82% 29.65 in 10.0 mi NW 6.9 mph - N/A   Clear
2:36 AM 53.6 °F - 48.2 °F 82% 29.65 in 10.0 mi NW 6.9 mph - N/A   Clear
2:55 AM 51.8 °F - 48.2 °F 88% 29.68 in 10.0 mi West 6.9 mph - N/A   Clear
2:56 AM 51.8 °F - 48.2 °F 88% 29.68 in 10.0 mi West 6.9 mph - N/A   Clear
3:19 AM 50.0 °F - 46.4 °F 87% 29.68 in 10.0 mi WNW 6.9 mph - N/A   Scattered Clouds
3:36 AM 50.0 °F - 46.4 °F 87% 29.68 in 10.0 mi WNW 6.9 mph - N/A   Clear
3:56 AM 50.0 °F - 46.4 °F 87% 29.69 in 10.0 mi WNW 5.8 mph - N/A   Clear
4:15 AM 50.0 °F - 48.2 °F 94% 29.70 in 10.0 mi WNW 6.9 mph - N/A   Clear
4:16 AM 50.0 °F - 48.2 °F 94% 29.70 in 10.0 mi WNW 6.9 mph - N/A   Clear
4:35 AM 50.0 °F - 46.4 °F 87% 29.70 in 10.0 mi WNW 5.8 mph - N/A   Clear
4:57 AM 48.2 °F - 46.4 °F 93% 29.72 in 10.0 mi NW 5.8 mph - N/A   Clear
5:15 AM 48.2 °F - 46.4 °F 93% 29.72 in 10.0 mi WNW 3.5 mph - N/A   Clear
5:16 AM 48.2 °F - 46.4 °F 93% 29.72 in 10.0 mi WNW 3.5 mph - N/A   Clear
5:35 AM 48.2 °F - 46.4 °F 93% 29.72 in 10.0 mi West 3.5 mph - N/A   Clear
5:55 AM 46.4 °F 45.2 °F 44.6 °F 93% 29.73 in 10.0 mi WNW 3.5 mph - N/A   Clear
5:59 AM 46.4 °F 45.2 °F 44.6 °F 93% 29.73 in 10.0 mi West 3.5 mph - N/A   Clear
6:17 AM 46.4 °F - 44.6 °F 93% 29.73 in 10.0 mi Calm Calm - N/A   Clear
6:35 AM 46.4 °F 44.3 °F 44.6 °F 93% 29.73 in 10.0 mi West 4.6 mph - N/A   Clear
6:55 AM 46.4 °F 42.9 °F 44.6 °F 93% 29.75 in 10.0 mi West 6.9 mph - N/A   Clear
6:56 AM 46.4 °F 42.9 °F 44.6 °F 93% 29.75 in 10.0 mi West 6.9 mph - N/A   Clear
7:15 AM 46.4 °F 44.3 °F 44.6 °F 93% 29.75 in 10.0 mi West 4.6 mph - N/A   Clear
7:19 AM 46.4 °F 44.3 °F 44.6 °F 93% 29.75 in 10.0 mi West 4.6 mph - N/A   Clear
7:38 AM 44.6 °F 42.2 °F 44.6 °F 100% 29.75 in 10.0 mi West 4.6 mph - N/A   Clear
7:55 AM 46.4 °F 42.9 °F 44.6 °F 93% 29.76 in 10.0 mi West 6.9 mph - N/A   Clear
8:15 AM 48.2 °F - 46.4 °F 93% 29.76 in 10.0 mi West 10.4 mph - N/A   Clear
8:16 AM 48.2 °F - 46.4 °F 93% 29.76 in 10.0 mi West 9.2 mph - N/A   Clear
8:35 AM 50.0 °F - 46.4 °F 87% 29.76 in 10.0 mi WNW 10.4 mph - N/A   Clear
8:36 AM 50.0 °F - 46.4 °F 87% 29.76 in 10.0 mi WNW 10.4 mph - N/A   Clear
8:58 AM 51.8 °F - 48.2 °F 88% 29.77 in 10.0 mi WNW 11.5 mph - N/A   Clear
9:16 AM 51.8 °F - 48.2 °F 88% 29.77 in 10.0 mi West 11.5 mph - N/A   Clear
9:36 AM 53.6 °F - 46.4 °F 77% 29.77 in 10.0 mi WNW 13.8 mph 18.4 mph N/A   Clear
9:55 AM 55.4 °F - 46.4 °F 72% 29.78 in 10.0 mi WNW 19.6 mph - N/A   Clear
9:56 AM 55.4 °F - 46.4 °F 72% 29.78 in 10.0 mi WNW 18.4 mph 21.9 mph N/A   Clear
10:15 AM 55.4 °F - 46.4 °F 72% 29.78 in 10.0 mi WNW 15.0 mph 21.9 mph N/A   Clear
10:19 AM 55.4 °F - 46.4 °F 72% 29.78 in 10.0 mi WNW 20.7 mph - N/A   Clear
10:37 AM 55.4 °F - 46.4 °F 72% 29.78 in 10.0 mi WNW 18.4 mph - N/A   Clear
10:55 AM 57.2 °F - 46.4 °F 67% 29.78 in 10.0 mi WNW 19.6 mph 24.2 mph N/A   Clear
11:15 AM 57.2 °F - 46.4 °F 67% 29.78 in 10.0 mi WNW 17.3 mph - N/A   Clear
11:16 AM 57.2 °F - 46.4 °F 67% 29.78 in 10.0 mi WNW 18.4 mph - N/A   Clear
11:35 AM 59.0 °F - 46.4 °F 63% 29.78 in 10.0 mi WNW 19.6 mph 25.3 mph N/A   Clear
11:36 AM 59.0 °F - 46.4 °F 63% 29.78 in 10.0 mi WNW 18.4 mph 25.3 mph N/A   Clear
11:58 AM 60.8 °F - 44.6 °F 55% 29.78 in 10.0 mi WNW 17.3 mph 27.6 mph N/A   Clear
12:17 PM 60.8 °F - 46.4 °F 59% 29.78 in 10.0 mi WNW 18.4 mph 25.3 mph N/A   Clear
12:36 PM 62.6 °F - 44.6 °F 52% 29.78 in 10.0 mi WNW 20.7 mph 28.8 mph N/A   Clear
12:55 PM 62.6 °F - 46.4 °F 55% 29.78 in 10.0 mi WNW 21.9 mph 25.3 mph N/A   Clear
12:56 PM 62.6 °F - 44.6 °F 52% 29.78 in 10.0 mi WNW 20.7 mph 25.3 mph N/A   Clear
1:15 PM 62.6 °F - 44.6 °F 52% 29.77 in 10.0 mi WNW 18.4 mph 28.8 mph N/A   Scattered Clouds
1:19 PM 60.8 °F - 44.6 °F 55% 29.77 in 10.0 mi WNW 19.6 mph 28.8 mph N/A   Scattered Clouds
1:38 PM 62.6 °F - 44.6 °F 52% 29.77 in 10.0 mi NW 21.9 mph 28.8 mph N/A   Scattered Clouds
1:55 PM 62.6 °F - 44.6 °F 52% 29.77 in 10.0 mi WNW 23.0 mph 28.8 mph N/A   Scattered Clouds
2:15 PM 62.6 °F - 44.6 °F 52% 29.77 in 10.0 mi NW 20.7 mph 27.6 mph N/A   Scattered Clouds
2:16 PM 62.6 °F - 44.6 °F 52% 29.77 in 10.0 mi NW 20.7 mph 27.6 mph N/A   Mostly Cloudy
2:35 PM 60.8 °F - 42.8 °F 52% 29.77 in 10.0 mi WNW 17.3 mph 27.6 mph N/A   Scattered Clouds
2:36 PM 60.8 °F - 42.8 °F 52% 29.77 in 10.0 mi WNW 17.3 mph 25.3 mph N/A   Scattered Clouds
2:58 PM 62.6 °F - 39.2 °F 42% 29.77 in 10.0 mi WNW 23.0 mph 28.8 mph N/A   Scattered Clouds
3:16 PM 62.6 °F - 41.0 °F 45% 29.77 in 10.0 mi WNW 18.4 mph 29.9 mph N/A   Scattered Clouds
3:36 PM 62.6 °F - 41.0 °F 45% 29.78 in 10.0 mi NW 19.6 mph 28.8 mph N/A   Mostly Cloudy
3:55 PM 62.6 °F - 39.2 °F 42% 29.78 in 10.0 mi NW 20.7 mph 28.8 mph N/A   Mostly Cloudy
4:15 PM 60.8 °F - 39.2 °F 45% 29.78 in 10.0 mi WNW 19.6 mph - N/A   Scattered Clouds
4:19 PM 62.6 °F - 39.2 °F 42% 29.78 in 10.0 mi NW 21.9 mph 27.6 mph N/A   Scattered Clouds
4:36 PM 62.6 °F - 39.2 °F 42% 29.78 in 10.0 mi NW 19.6 mph 27.6 mph N/A   Scattered Clouds
4:55 PM 64.4 °F - 39.2 °F 40% 29.78 in 10.0 mi NW 15.0 mph 26.5 mph N/A   Mostly Cloudy
4:56 PM 64.4 °F - 39.2 °F 40% 29.78 in 10.0 mi WNW 17.3 mph 26.5 mph N/A   Mostly Cloudy
5:15 PM 62.6 °F - 39.2 °F 42% 29.79 in 10.0 mi NW 13.8 mph 20.7 mph N/A   Overcast
5:16 PM 60.8 °F - 39.2 °F 45% 29.79 in 10.0 mi NW 13.8 mph 20.7 mph N/A   Overcast
5:35 PM 60.8 °F - 39.2 °F 45% 29.80 in 10.0 mi NW 16.1 mph 24.2 mph N/A   Mostly Cloudy
5:39 PM 60.8 °F - 39.2 °F 45% 29.80 in 10.0 mi NW 13.8 mph 24.2 mph N/A   Mostly Cloudy
5:58 PM 60.8 °F - 41.0 °F 48% 29.80 in 10.0 mi WNW 15.0 mph - N/A   Scattered Clouds
6:15 PM 60.8 °F - 41.0 °F 48% 29.80 in 10.0 mi WNW 11.5 mph - N/A   Mostly Cloudy
6:35 PM 60.8 °F - 39.2 °F 45% 29.81 in 10.0 mi NW 17.3 mph 25.3 mph N/A   Overcast
6:36 PM 60.8 °F - 39.2 °F 45% 29.81 in 10.0 mi NW 15.0 mph 25.3 mph N/A   Overcast
6:55 PM 57.2 °F - 41.0 °F 55% 29.81 in 10.0 mi WNW 9.2 mph - N/A   Scattered Clouds
7:18 PM 55.4 °F - 39.2 °F 54% 29.82 in 10.0 mi WNW 9.2 mph - N/A   Clear
7:37 PM 53.6 °F - 39.2 °F 58% 29.83 in 10.0 mi WNW 8.1 mph - N/A   Clear
7:56 PM 51.8 °F - 39.2 °F 62% 29.83 in 10.0 mi WNW 6.9 mph - N/A   Clear
8:15 PM 50.0 °F - 39.2 °F 66% 29.84 in 10.0 mi WNW 6.9 mph - N/A   Scattered Clouds
8:16 PM 50.0 °F - 39.2 °F 66% 29.84 in 10.0 mi WNW 6.9 mph - N/A   Scattered Clouds
8:39 PM 50.0 °F - 39.2 °F 66% 29.85 in 10.0 mi WNW 8.1 mph - N/A   Scattered Clouds
8:56 PM 48.2 °F - 39.2 °F 71% 29.85 in 10.0 mi West 6.9 mph - N/A   Clear
9:16 PM 48.2 °F - 39.2 °F 71% 29.86 in 10.0 mi West 6.9 mph - N/A   Clear
9:35 PM 46.4 °F 42.9 °F 39.2 °F 76% 29.87 in 10.0 mi West 6.9 mph - N/A   Clear
9:36 PM 46.4 °F 42.4 °F 39.2 °F 76% 29.87 in 10.0 mi West 8.1 mph - N/A   Clear
9:55 PM 46.4 °F 43.5 °F 39.2 °F 76% 29.87 in 10.0 mi West 5.8 mph - N/A   Clear
10:16 PM 46.4 °F 42.9 °F 39.2 °F 76% 29.87 in 10.0 mi West 6.9 mph - N/A   Clear
10:35 PM 46.4 °F 44.3 °F 39.2 °F 76% 29.88 in 10.0 mi West 4.6 mph - N/A   Clear
10:36 PM 46.4 °F 43.5 °F 39.2 °F 76% 29.87 in 10.0 mi West 5.8 mph - N/A   Clear
10:55 PM 46.4 °F 42.9 °F 39.2 °F 76% 29.88 in 10.0 mi West 6.9 mph - N/A   Clear
10:56 PM 46.4 °F 42.9 °F 39.2 °F 76% 29.88 in 10.0 mi West 6.9 mph - N/A   Clear
11:18 PM 44.6 °F 41.4 °F 39.2 °F 81% 29.88 in 10.0 mi West 5.8 mph - N/A   Clear
11:36 PM 44.6 °F 40.7 °F 39.2 °F 81% 29.88 in 10.0 mi West 6.9 mph - N/A   Clear
11:56 PM 44.6 °F 40.7 °F 39.2 °F 81% 29.88 in 10.0 mi West 6.9 mph - N/A   Clear